Location: Newark
(0.5333°S, 166.9167°E)
Time: 17:17:31
(UTC+00:00)

Envisat - Visible Passes

Search period start: 20 October 2019 00:00
Search period end: 30 October 2019 00:00
Orbit: 764 x 766 km, 98.1° (Epoch: 20 October)

Date Brightness Start Highest point End Pass type
(mag) Time Alt. Az. Time Alt. Az. Time Alt. Az.
20 Oct 2.9 07:17:15 10° SSE 07:22:19 71° ENE 07:27:21 10° N visible
21 Oct 5.7 08:20:50 10° SSW 08:24:23 19° WSW 08:27:56 10° WNW visible
22 Oct 3.8 07:42:47 10° S 07:47:45 54° WSW 07:52:41 10° NNW visible
23 Oct 3.1 07:06:09 10° SSE 07:11:05 51° ENE 07:15:59 10° N visible
24 Oct 5.2 08:08:59 10° SSW 08:13:09 26° WSW 08:17:20 10° NW visible
25 Oct 3.2 07:31:26 10° S 07:36:30 75° WSW 07:41:33 10° NNW visible
26 Oct 3.5 06:55:10 10° SE 06:59:51 37° ENE 07:04:29 10° N visible
26 Oct 6.2 08:36:35 10° SW 08:38:33 12° WSW 08:40:33 10° W visible
27 Oct 4.6 07:57:20 10° SSW 08:01:56 35° WSW 08:06:31 10° NW visible
28 Oct 2.9 07:20:11 10° SSE 07:25:17 80° ENE 07:30:20 10° N visible
29 Oct 5.8 08:24:07 10° SW 08:27:20 17° WSW 08:30:33 10° WNW visible
